• In Schweiz
  • Länderverzeichnis
  • Für 7 Tage
  • Wassertemperatur
  • Satellitenkarten
  • Wetterkarte
  • Widgets
  • user-avatar
    Anmelden

    Stündliche Wetter Serebryanka

    Heute, 22 September, Samstag

    Zeit Temperatur Niederschläge Wind Luftdruck Luftfeuchtigkeit
    00:00 +21°C° 0 mm 1 m/S 755 mmHg 56%
    01:00 +19°C° 0 mm 2 m/S 755 mmHg 56%
    02:00 +19°C° 0 mm 2 m/S 755 mmHg 57%
    03:00 +19°C° 0 mm 2 m/S 755 mmHg 58%
    04:00 +18°C° 0 mm 2 m/S 755 mmHg 58%
    05:00 +18°C° 0 mm 2 m/S 755 mmHg 59%
    06:00 +20°C° 0 mm 2 m/S 755 mmHg 55%
    07:00 +21°C° 0 mm 2 m/S 755 mmHg 51%
    08:00 +24°C° 0 mm 2 m/S 755 mmHg 48%
    09:00 +25°C° 0 mm 2 m/S 755 mmHg 43%
    10:00 +27°C° 0 mm 2 m/S 755 mmHg 39%
    11:00 +29°C° 0 mm 2 m/S 755 mmHg 34%
    12:00 +29°C° 0 mm 2 m/S 754 mmHg 32%
    13:00 +30°C° 0 mm 2 m/S 754 mmHg 31%
    14:00 +30°C° 0 mm 2 m/S 754 mmHg 29%
    15:00 +29°C° 0 mm 2 m/S 754 mmHg 32%
    16:00 +28°C° 0 mm 3 m/S 754 mmHg 35%
    17:00 +27°C° 0 mm 3 m/S 753 mmHg 38%
    18:00 +26°C° 0 mm 3 m/S 754 mmHg 42%
    19:00 +24°C° 0 mm 3 m/S 754 mmHg 46%
    20:00 +21°C° 0 mm 2 m/S 754 mmHg 50%
    21:00 +21°C° 0 mm 2 m/S 754 mmHg 51%
    22:00 +21°C° 0 mm 2 m/S 754 mmHg 52%
    23:00 +20°C° 0 mm 2 m/S 754 mmHg 54%

    Morgen, 23 September, Sonntag

    Zeit Temperatur Niederschläge Wind Luftdruck Luftfeuchtigkeit
    00:00 +20°C° 0 mm 2 m/S 753 mmHg 55%
    01:00 +20°C° 0 mm 2 m/S 753 mmHg 57%
    02:00 +20°C° 0 mm 2 m/S 753 mmHg 58%
    03:00 +20°C° 0 mm 2 m/S 753 mmHg 60%
    04:00 +19°C° 0 mm 3 m/S 753 mmHg 62%
    05:00 +19°C° 0 mm 3 m/S 753 mmHg 64%
    06:00 +20°C° 0 mm 4 m/S 753 mmHg 61%
    07:00 +22°C° 0 mm 4 m/S 753 mmHg 59%
    08:00 +23°C° 0 mm 5 m/S 753 mmHg 56%
    09:00 +23°C° 0 mm 5 m/S 753 mmHg 57%
    10:00 +23°C° 0 mm 5 m/S 754 mmHg 58%
    11:00 +23°C° 0 mm 5 m/S 754 mmHg 59%
    12:00 +23°C° 0 mm 5 m/S 754 mmHg 59%
    13:00 +22°C° 0 mm 6 m/S 754 mmHg 60%
    14:00 +21°C° 0 mm 6 m/S 754 mmHg 60%
    15:00 +21°C° 0 mm 6 m/S 754 mmHg 59%
    16:00 +20°C° 0 mm 5 m/S 754 mmHg 58%
    17:00 +20°C° 0 mm 5 m/S 755 mmHg 57%
    18:00 +19°C° 0 mm 4 m/S 755 mmHg 58%
    19:00 +18°C° 0 mm 3 m/S 756 mmHg 59%
    20:00 +17°C° 0 mm 3 m/S 756 mmHg 59%
    21:00 +17°C° 0 mm 2 m/S 756 mmHg 59%
    22:00 +16°C° 0 mm 2 m/S 757 mmHg 59%
    23:00 +16°C° 0 mm 1 m/S 757 mmHg 59%

    übermorgen, 24 September, Montag

    Zeit Temperatur Niederschläge Wind Luftdruck Luftfeuchtigkeit
    00:00 +16°C° 0 mm 1 m/S 757 mmHg 60%
    01:00 +15°C° 0 mm 2 m/S 756 mmHg 61%
    02:00 +15°C° 0 mm 2 m/S 756 mmHg 61%
    03:00 +15°C° 0 mm 2 m/S 756 mmHg 62%
    04:00 +14°C° 0 mm 3 m/S 756 mmHg 63%
    05:00 +13°C° 0 mm 4 m/S 755 mmHg 64%
    06:00 +15°C° 0 mm 4 m/S 755 mmHg 57%
    07:00 +16°C° 0 mm 5 m/S 755 mmHg 49%
    08:00 +19°C° 0 mm 6 m/S 755 mmHg 42%
    09:00 +20°C° 0 mm 6 m/S 755 mmHg 40%
    10:00 +22°C° 0 mm 6 m/S 754 mmHg 39%
    11:00 +23°C° 0 mm 6 m/S 754 mmHg 38%
    12:00 +24°C° 0 mm 6 m/S 753 mmHg 38%
    13:00 +26°C° 0 mm 7 m/S 753 mmHg 38%
    14:00 +26°C° 0 mm 7 m/S 752 mmHg 38%
    15:00 +26°C° 0 mm 7 m/S 751 mmHg 42%
    16:00 +24°C° 0 mm 7 m/S 751 mmHg 46%
    17:00 +23°C° 0 mm 7 m/S 750 mmHg 50%
    18:00 +22°C° 0 mm 7 m/S 750 mmHg 54%
    19:00 +22°C° 0 mm 7 m/S 751 mmHg 59%
    20:00 +21°C° 0 mm 8 m/S 751 mmHg 63%
    21:00 +18°C° 0.1 mm 8 m/S 752 mmHg 63%
    22:00 +17°C° 0.1 mm 8 m/S 752 mmHg 63%
    23:00 +16°C° 0.1 mm 9 m/S 752 mmHg 63%

    25 September, Dienstag

    Zeit Temperatur Niederschläge Wind Luftdruck Luftfeuchtigkeit
    00:00 +15°C° 0.1 mm 8 m/S 753 mmHg 61%
    01:00 +15°C° 0.1 mm 7 m/S 753 mmHg 59%
    02:00 +14°C° 0.1 mm 6 m/S 754 mmHg 57%
    03:00 +14°C° 0 mm 6 m/S 754 mmHg 58%
    04:00 +13°C° 0 mm 6 m/S 754 mmHg 59%
    05:00 +13°C° 0 mm 6 m/S 755 mmHg 60%
    06:00 +13°C° 0 mm 6 m/S 755 mmHg 58%
    07:00 +14°C° 0 mm 7 m/S 755 mmHg 56%
    08:00 +14°C° 0 mm 7 m/S 756 mmHg 53%
    09:00 +14°C° 0 mm 7 m/S 756 mmHg 51%
    10:00 +15°C° 0 mm 7 m/S 756 mmHg 48%
    11:00 +15°C° 0 mm 8 m/S 757 mmHg 45%
    12:00 +15°C° 0 mm 8 m/S 757 mmHg 45%
    13:00 +16°C° 0 mm 8 m/S 757 mmHg 44%
    14:00 +16°C° 0 mm 8 m/S 757 mmHg 43%
    15:00 +15°C° 0 mm 8 m/S 757 mmHg 45%
    16:00 +15°C° 0 mm 8 m/S 757 mmHg 46%
    17:00 +14°C° 0 mm 7 m/S 757 mmHg 47%
    18:00 +14°C° 0.1 mm 7 m/S 758 mmHg 50%
    19:00 +12°C° 0.1 mm 7 m/S 759 mmHg 54%
    20:00 +11°C° 0.1 mm 7 m/S 759 mmHg 57%
    21:00 +11°C° 0 mm 7 m/S 759 mmHg 56%
    22:00 +10°C° 0 mm 7 m/S 760 mmHg 56%
    23:00 +10°C° 0 mm 7 m/S 760 mmHg 55%

    26 September, Mittwoch

    Zeit Temperatur Niederschläge Wind Luftdruck Luftfeuchtigkeit
    00:00 +10°C° 0 mm 6 m/S 760 mmHg 55%
    01:00 +9°C° 0 mm 6 m/S 760 mmHg 55%
    02:00 +9°C° 0 mm 6 m/S 760 mmHg 56%
    03:00 +8°C° 0 mm 5 m/S 761 mmHg 57%
    04:00 +8°C° 0 mm 5 m/S 761 mmHg 59%
    05:00 +7°C° 0 mm 5 m/S 761 mmHg 61%
    06:00 +8°C° 0 mm 5 m/S 761 mmHg 58%
    07:00 +9°C° 0 mm 5 m/S 762 mmHg 54%
    08:00 +10°C° 0 mm 5 m/S 762 mmHg 51%
    09:00 +12°C° 0 mm 5 m/S 762 mmHg 46%
    10:00 +13°C° 0 mm 5 m/S 762 mmHg 42%
    11:00 +14°C° 0 mm 5 m/S 761 mmHg 37%
    12:00 +14°C° 0 mm 5 m/S 761 mmHg 35%
    13:00 +15°C° 0 mm 4 m/S 761 mmHg 33%
    14:00 +15°C° 0 mm 4 m/S 760 mmHg 31%
    15:00 +14°C° 0 mm 4 m/S 760 mmHg 33%
    16:00 +14°C° 0 mm 4 m/S 760 mmHg 34%
    17:00 +13°C° 0 mm 4 m/S 760 mmHg 36%
    18:00 +13°C° 0 mm 3 m/S 760 mmHg 39%
    19:00 +12°C° 0 mm 3 m/S 760 mmHg 42%
    20:00 +12°C° 0 mm 2 m/S 760 mmHg 45%
    21:00 +11°C° 0 mm 3 m/S 760 mmHg 45%
    22:00 +11°C° 0 mm 3 m/S 760 mmHg 46%
    23:00 +11°C° 0 mm 3 m/S 760 mmHg 47%

    27 September, Donnerstag

    Zeit Temperatur Niederschläge Wind Luftdruck Luftfeuchtigkeit
    00:00 +10°C° 0.1 mm 3 m/S 760 mmHg 50%
    01:00 +10°C° 0.1 mm 3 m/S 760 mmHg 53%
    02:00 +9°C° 0.1 mm 3 m/S 760 mmHg 56%
    03:00 +9°C° 0 mm 3 m/S 760 mmHg 59%
    04:00 +9°C° 0 mm 3 m/S 760 mmHg 63%
    05:00 +7°C° 0 mm 4 m/S 760 mmHg 66%
    06:00 +8°C° 0 mm 4 m/S 760 mmHg 62%
    07:00 +11°C° 0 mm 4 m/S 760 mmHg 58%
    08:00 +12°C° 0 mm 4 m/S 761 mmHg 54%
    09:00 +13°C° 0 mm 5 m/S 761 mmHg 47%
    10:00 +15°C° 0 mm 5 m/S 761 mmHg 40%
    11:00 +16°C° 0 mm 6 m/S 761 mmHg 33%
    12:00 +16°C° 0 mm 6 m/S 760 mmHg 32%
    13:00 +17°C° 0 mm 6 m/S 760 mmHg 32%
    14:00 +17°C° 0 mm 6 m/S 760 mmHg 31%
    15:00 +16°C° 0 mm 6 m/S 760 mmHg 33%
    16:00 +15°C° 0 mm 6 m/S 760 mmHg 35%
    17:00 +15°C° 0 mm 5 m/S 759 mmHg 37%
    18:00 +13°C° 0 mm 5 m/S 759 mmHg 40%
    19:00 +12°C° 0 mm 4 m/S 759 mmHg 44%
    20:00 +11°C° 0 mm 4 m/S 759 mmHg 48%
    21:00 +11°C° 0 mm 4 m/S 759 mmHg 48%
    22:00 +11°C° 0 mm 4 m/S 759 mmHg 49%
    23:00 +10°C° 0 mm 5 m/S 758 mmHg 49%
    Mehr zeigen